Eagle River, WI

7:20 PM CST on December 13, 2017 (GMT -0600)
Eagle River Union

Weather History for KEGV - October, 2010

Change the Weather History Date:

Thursday, October 7, 2010

  Actual Average Record
Temperature  
Mean Temperature 54 °F -  
Max Temperature 69 °F 54 °F 82 °F (2007)
Min Temperature 39 °F 38 °F 23 °F (2001)
Degree Days  
Heating Degree Days 11    
Growing Degree Days 4 (Base 50)    
Moisture  
Dew Point 36 °F    
Average Humidity 54    
Maximum Humidity 98    
Minimum Humidity 25    
Precipitation  
Precipitation 0.00 in - - ()
Sea Level Pressure  
Sea Level Pressure 30.04 in    
Wind  
Wind Speed 4 mph (WNW)    
Max Wind Speed 12 mph    
Max Gust Speed 16 mph    
Visibility 10 miles    
Events      
Averages and records for this station are not official NWS values.
T = Trace of Precipitation, MM = Missing Value Source: NWS Daily Summary

Daily Weather History Graph

Daily Weather History Graph

Search for Another Location

Airport or City:

Trip Planner

Search our weather history database for the weather conditions in past years. The results will help you decide how hot, cold, wet, or windy it might be!

Date:

Astronomy

Oct. 07, 2010 Rise Set
Actual Time 7:03 AM CDT 6:25 PM CDT
Civil Twilight 6:33 AM CDT 6:55 PM CDT
Nautical Twilight 5:58 AM CDT 7:30 PM CDT
Astronomical Twilight 5:23 AM CDT 8:04 PM CDT
Moon 6:57 AM CDT (10/7) 5:57 PM CDT (10/7)
Length of Visible Light 12h 22m
Length of Day
11h 22m
Waning Crescent, 0% of the Moon is Illuminated
Oct 7
Waning Crescent
Oct 7
New
Oct 14
First Quarter
Oct 22
Full
Oct 30
Last Quarter

Hourly Weather History & Observations

Time (CDT) Temp. Windchill Dew Point Humidity Pressure Visibility Wind Dir Wind Speed Gust Speed Precip Events Conditions
12:15 AM 48.0 °F - 32.7 °F 55% 30.01 in 10.0 mi WNW 4.6 mph - N/A   Clear
12:35 AM 48.6 °F - 33.1 °F 55% 30.02 in 10.0 mi WNW 3.5 mph - N/A   Clear
12:55 AM 49.1 °F - 33.3 °F 54% 30.02 in 10.0 mi WNW 5.8 mph - N/A   Clear
1:15 AM 48.6 °F - 33.8 °F 57% 30.02 in 10.0 mi WNW 4.6 mph - N/A   Clear
1:35 AM 49.5 °F - 33.4 °F 54% 30.03 in 10.0 mi WNW 4.6 mph - N/A   Clear
1:55 AM 47.7 °F - 33.4 °F 58% 30.03 in 10.0 mi WNW 4.6 mph - N/A   Clear
2:15 AM 47.7 °F - 33.4 °F 58% 30.03 in 10.0 mi West 4.6 mph - N/A   Clear
2:35 AM 46.4 °F 44.3 °F 33.6 °F 61% 30.03 in 10.0 mi WNW 4.6 mph - N/A   Clear
2:55 AM 46.2 °F 44.1 °F 33.4 °F 61% 30.02 in 10.0 mi WNW 4.6 mph - N/A   Clear
3:15 AM 46.0 °F 43.9 °F 33.6 °F 62% 30.02 in 10.0 mi West 4.6 mph - N/A   Clear
3:35 AM 45.5 °F 43.2 °F 33.8 °F 64% 30.02 in 10.0 mi West 4.6 mph - N/A   Clear
3:55 AM 46.0 °F 44.8 °F 33.8 °F 62% 30.02 in 10.0 mi WNW 3.5 mph - N/A   Clear
4:15 AM 45.7 °F 42.7 °F 33.8 °F 63% 30.03 in 10.0 mi WNW 5.8 mph - N/A   Clear
4:35 AM 45.7 °F 42.7 °F 34.0 °F 64% 30.03 in 10.0 mi WNW 5.8 mph - N/A   Clear
4:55 AM 45.5 °F 42.5 °F 34.0 °F 64% 30.03 in 10.0 mi WNW 5.8 mph - N/A   Clear
5:15 AM 44.8 °F 41.6 °F 34.2 °F 66% 30.02 in 10.0 mi West 5.8 mph - N/A   Clear
5:35 AM 44.6 °F 41.4 °F 34.0 °F 66% 30.02 in 10.0 mi West 5.8 mph - N/A   Clear
5:55 AM 45.1 °F - 33.8 °F 65% 30.03 in 10.0 mi Calm Calm - N/A   Clear
6:15 AM 44.6 °F - 33.8 °F 66% 30.04 in 10.0 mi Calm Calm - N/A   Clear
6:35 AM 42.6 °F 40.9 °F 33.6 °F 70% 30.05 in 10.0 mi WNW 3.5 mph - N/A   Clear
6:55 AM 42.4 °F 39.6 °F 33.4 °F 70% 30.04 in 10.0 mi West 4.6 mph - N/A   Clear
7:15 AM 40.5 °F - 33.1 °F 75% 30.05 in 10.0 mi Calm Calm - N/A   Clear
7:35 AM 39.9 °F - 34.0 °F 79% 30.06 in 10.0 mi Calm Calm - N/A   Clear
7:55 AM 41.4 °F - 34.7 °F 77% 30.06 in 10.0 mi Calm Calm - N/A   Clear
8:15 AM 44.4 °F - 36.9 °F 75% 30.07 in 10.0 mi Calm Calm - N/A   Clear
8:35 AM 48.6 °F - 36.1 °F 62% 30.08 in 10.0 mi WNW 3.5 mph - N/A   Clear
8:55 AM 50.4 °F - 36.5 °F 59% 30.10 in 10.0 mi WNW 6.9 mph - N/A   Clear
9:15 AM 52.3 °F - 36.9 °F 56% 30.10 in 10.0 mi NW 5.8 mph - N/A   Clear
9:35 AM 53.8 °F - 37.8 °F 55% 30.09 in 10.0 mi WNW 4.6 mph - N/A   Clear
10:15 AM 57.7 °F - 38.7 °F 49% 30.10 in 10.0 mi North 5.8 mph - N/A   Clear
10:35 AM 59.0 °F - 38.3 °F 46% 30.10 in 10.0 mi NW 5.8 mph - N/A   Clear
10:55 AM 59.0 °F - 37.8 °F 45% 30.10 in 10.0 mi NW 6.9 mph - N/A   Clear
11:15 AM 60.4 °F - 37.9 °F 43% 30.10 in 10.0 mi NNW 5.8 mph - N/A   Clear
11:35 AM 61.9 °F - 38.3 °F 42% 30.10 in 10.0 mi NW 6.9 mph - N/A   Clear
11:55 AM 62.6 °F - 37.8 °F 40% 30.10 in 10.0 mi West 10.4 mph - N/A   Clear
12:15 PM 63.5 °F - 37.0 °F 38% 30.09 in 10.0 mi WNW 6.9 mph - N/A   Clear
12:35 PM 63.9 °F - 36.7 °F 37% 30.09 in 10.0 mi West 3.5 mph - N/A   Clear
12:55 PM 64.4 °F - 36.0 °F 35% 30.08 in 10.0 mi NW 4.6 mph - N/A   Clear
1:15 PM 65.7 °F - 36.5 °F 34% 30.07 in 10.0 mi WSW 8.1 mph - N/A   Clear
1:35 PM 66.4 °F - 35.1 °F 31% 30.06 in 10.0 mi WSW 9.2 mph - N/A   Clear
1:55 PM 67.5 °F - 34.2 °F 29% 30.06 in 10.0 mi WNW 4.6 mph 16.1 mph N/A   Clear
2:15 PM 66.9 °F - 34.0 °F 30% 30.05 in 10.0 mi NW 5.8 mph - N/A   Clear
2:35 PM 68.4 °F - 34.3 °F 28% 30.05 in 10.0 mi NW 8.1 mph - N/A   Clear
2:55 PM 67.8 °F - 33.4 °F 28% 30.04 in 10.0 mi WNW 4.6 mph 16.1 mph N/A   Clear
3:15 PM 68.4 °F - 33.1 °F 27% 30.04 in 10.0 mi WNW 5.8 mph - N/A   Clear
3:35 PM 68.7 °F - 32.9 °F 27% 30.04 in 10.0 mi WNW 11.5 mph 16.1 mph N/A   Clear
3:55 PM 69.3 °F - 33.3 °F 26% 30.03 in 10.0 mi West 11.5 mph - N/A   Clear
4:15 PM 68.9 °F - 31.8 °F 25% 30.03 in 10.0 mi WNW 10.4 mph 16.1 mph N/A   Clear
4:35 PM 68.9 °F - 33.3 °F 27% 30.03 in 10.0 mi West 5.8 mph - N/A   Clear
4:55 PM 68.4 °F - 33.1 °F 27% 30.02 in 10.0 mi West 8.1 mph - N/A   Clear
5:15 PM 68.0 °F - 33.8 °F 28% 30.02 in 10.0 mi West 6.9 mph - N/A   Clear
5:35 PM 66.4 °F - 36.0 °F 33% 30.02 in 10.0 mi West 5.8 mph - N/A   Clear
5:55 PM 64.2 °F - 37.0 °F 37% 30.02 in 10.0 mi West 3.5 mph - N/A   Clear
6:15 PM 61.0 °F - 39.4 °F 45% 30.02 in 10.0 mi Calm Calm - N/A   Clear
6:35 PM 57.6 °F - 41.9 °F 56% 30.02 in 10.0 mi Calm Calm - N/A   Clear
6:55 PM 53.6 °F - 43.0 °F 67% 30.02 in 10.0 mi Calm Calm - N/A   Clear
7:15 PM 51.6 °F - 43.0 °F 72% 30.02 in 10.0 mi Calm Calm - N/A   Clear
7:35 PM 50.2 °F - 42.3 °F 74% 30.02 in 10.0 mi Calm Calm - N/A   Clear
7:55 PM 49.1 °F - 41.4 °F 75% 30.02 in 10.0 mi Calm Calm - N/A   Clear
8:15 PM 47.8 °F - 41.0 °F 77% 30.03 in 10.0 mi Calm Calm - N/A   Clear
8:35 PM 46.2 °F 45.0 °F 40.6 °F 81% 30.03 in 10.0 mi WSW 3.5 mph - N/A   Clear
8:55 PM 46.0 °F - 41.5 °F 84% 30.03 in 10.0 mi Calm Calm - N/A   Clear
9:15 PM 43.9 °F - 42.4 °F 95% 30.02 in 10.0 mi Calm Calm - N/A   Clear
9:35 PM 44.1 °F - 43.5 °F 98% 30.02 in 10.0 mi Calm Calm - N/A   Clear
9:55 PM 43.2 °F - 43.2 °F 100% 30.02 in 10.0 mi Calm Calm - N/A   Clear
10:15 PM 42.6 °F - 42.8 °F 100% 30.02 in 10.0 mi Calm Calm - N/A   Clear
10:35 PM 42.1 °F 40.2 °F 42.4 °F 100% 30.02 in 10.0 mi SW 3.5 mph - N/A   Clear
10:55 PM 41.9 °F - 41.9 °F 100% 30.02 in 10.0 mi Calm Calm - N/A   Clear
11:15 PM 41.5 °F - 41.7 °F 100% 30.02 in 10.0 mi Calm Calm - N/A   Clear
11:35 PM 40.5 °F - 40.8 °F 100% 30.01 in 10.0 mi Calm Calm - N/A   Clear
11:55 PM 41.4 °F - 41.7 °F 100% 30.01 in 10.0 mi Calm Calm - N/A   Clear